Location: Hunton
(51.2000°N, 0.4833°E)
Time: 18:37:19
(UTC+00:00)

Daily predictions for brighter satellites

Satellite Brightness Start Highest point End
(mag) Time Altitude Azimuth Time Altitude Azimuth Time Altitude Azimuth
NOSS 2-2 (C) 4.3 18:16:34 10° NW 18:20:58 53° NE 18:27:01 10° ESE
SKYMED 2 3.7 18:20:59 10° NNE 18:25:22 87° W 18:29:42 10° SSW
COBE Rocket 3.9 18:20:33 10° SSE 18:25:28 66° ENE 18:30:17 10° N
Resurs 01 Rocket 3.7 18:24:28 10° ENE 18:25:34 11° NE 18:26:39 10° NE
PSLV R/B 4.0 18:21:52 10° S 18:25:37 72° WSW 18:29:19 10° NNW
Cosmos 407 Rocket 3.5 18:21:48 10° S 18:26:51 63° ESE 18:32:01 10° NNE
Cosmos 2263 Rocket 3.4 18:22:56 10° NNW 18:27:38 25° NE 18:32:18 10° E
Cosmos 540 Rocket 4.2 18:24:53 10° NNW 18:29:36 35° NE 18:34:16 10° ESE
Cosmos 1763 Rocket 3.7 18:26:03 10° NNW 18:31:01 52° ENE 18:35:58 10° SE
YAOGAN 1 2.5 18:28:19 10° SSE 18:32:37 75° ENE 18:36:57 10° N
SJ-6B 3.7 18:37:45 10° SE 18:40:54 27° ENE 18:44:07 10° N
NOSS 3-1 (A) 4.1 18:34:56 10° NW 18:42:06 78° NE 18:50:43 10° SE
ASTEX 1 3.4 18:39:25 10° N 18:44:24 75° E 18:49:22 10° S
Cosmos 1626 2.0 18:41:26 10° N 18:45:04 66° ENE 18:48:40 10° SSE
Okean-O 3.4 18:41:37 10° SE 18:45:33 32° ENE 18:49:30 10° N
Cosmos 1697 Rocket 3.3 18:41:40 10° S 18:46:38 33° ESE 18:51:37 10° NE
OBJECT-B 1.2 18:44:26 10° SE 18:46:47 30° ENE 18:49:15 10° N
Cosmos 1869 Rocket 3.5 18:43:38 10° S 18:48:05 78° E 18:52:34 10° NNE
Cosmos 1242 Rocket 3.6 18:45:18 10° SE 18:48:12 23° E 18:51:05 10° NE
CSL-04 Debris 4.4 18:46:47 10° SE 18:52:00 50° ENE 18:57:12 10° N
Tsikada Rocket 4.3 18:50:50 10° SSW 18:57:14 79° W 19:03:43 10° N
Lacrosse 5 3.3 18:52:47 10° WNW 18:57:21 34° SW 19:01:54 10° SSE
USA 215 3.8 18:53:06 10° ENE 18:59:30 58° N 19:05:52 10° W
Cosmos 676 Rocket 4.1 18:55:26 10° S 19:00:24 49° ESE 19:05:25 10° NNE
NOSS 2-2 (D) 4.1 18:56:47 10° NW 19:01:28 86° NE 19:07:45 11° SE
Cosmos 2227 Rocket 2.3 18:56:07 10° NNW 19:01:48 80° WSW 19:07:27 10° SSE
CZ-4C R/B 4.2 18:55:26 10° NW 19:02:14 43° WSW 19:10:05 10° S
Resurs 1-3 4.2 18:59:48 13° SE 19:03:16 36° ENE 19:07:17 10° N
CZ-4B R/B 3.9 18:58:37 10° S 19:03:50 56° WSW 19:09:11 10° NNW
deb Chang Zheng 4 4.4 19:03:09 18° ESE 19:05:23 29° ENE 19:08:57 10° N
Cosmos 1378 Rocket 4.0 19:03:05 10° N 19:07:18 41° ENE 19:10:41 15° SE
KORONAS-FOTON 4.3 19:03:43 10° NNW 19:07:36 63° W 19:11:25 10° S
SL-4 R/B 2.2 19:04:28 10° W 19:08:57 90° SE 19:12:26 18° E
Cosmos 1707 4.2 19:09:24 10° NNW 19:12:57 39° W 19:16:30 10° SSW
Cosmos 1674 3.3 19:09:58 10° NNW 19:13:42 57° W 19:17:23 10° S
Cosmos 2297 Rocket 3.4 19:11:35 10° NW 19:16:56 43° WSW 19:22:15 10° S
Landsat 5 3.8 19:13:04 10° NNE 19:17:27 51° E 19:21:50 10° S
Cosmos 2369 4.3 19:12:27 10° SSE 19:17:28 33° ESE 19:22:31 10° NE
Cosmos 1733 Rocket 3.1 19:13:22 10° S 19:17:41 57° E 19:22:04 10° NNE
Okean 2 3.8 19:18:51 10° NNW 19:22:59 66° W 19:27:06 10° S
ISS -3.8 19:20:24 10° W 19:23:47 81° N 19:25:11 33° E
Cosmos 1733 3.1 19:20:18 10° S 19:24:01 63° E 19:27:46 10° NNE
Cosmos 1980 Rocket 2.7 19:19:04 10° S 19:24:05 33° ESE 19:29:04 10° NE
SL-14 R/B 3.2 19:21:50 10° N 19:25:44 69° ENE 19:28:41 17° SSE
CSL-04 Rocket 3.6 19:22:57 10° SSE 19:28:15 82° ENE 19:33:39 10° NNW
Okean O Rocket 3.1 19:24:28 10° SSW 19:28:31 38° W 19:32:37 10° NNW
USA 186 1.1 19:27:57 37° SSE 19:28:52 87° ENE 19:31:37 10° NNW
Nadezhda 4 Rocket 4.2 19:26:08 10° SSE 19:32:12 51° E 19:38:18 10° NNE
Cosmos 468 Rocket 4.4 19:28:25 10° NNW 19:33:31 63° WSW 19:38:35 10° S
CZ-4 R/B 3.0 19:31:11 10° SSW 19:35:01 36° W 19:38:55 10° NNW
H-2A R/B 2.7 19:34:02 33° ESE 19:35:24 46° ENE 19:39:14 10° N
Cosmos 1656 4.2 19:30:01 10° SW 19:35:33 61° NW 19:41:12 10° NNE
Cosmos 1850 Rocket 4.2 19:39:19 10° S 19:44:16 47° ESE 19:49:18 10° NE
Cosmos 2219 4.1 19:39:38 10° NW 19:45:09 49° WSW 19:50:39 10° S
IRS-1C Rocket 4.1 19:40:37 12° SSE 19:45:31 84° WSW 19:50:50 10° NNW
CZ-4C R/B 4.3 19:42:58 10° NNE 19:44:22 23° NE 19:44:22 23° NE
Cosmos 1726 1.9 19:46:22 36° SSE 19:47:40 65° E 19:51:18 10° NNE
Cosmos 2360 4.1 19:43:13 10° SSW 19:48:57 87° ESE 19:54:44 10° NNE
SPOT 5 4.4 19:49:18 21° ENE 19:49:37 21° ENE 19:53:19 10° N
Ariane Rocket 3.7 19:48:39 32° E 19:49:44 36° ENE 19:54:22 10° N
IRIDIUM 104 4.3 19:44:51 10° S 19:50:04 89° E 19:55:21 10° N
Cosmos 2292 Rocket 4.3 19:46:54 10° SSE 19:53:10 51° E 19:57:57 10° NNE
Cosmos 2227 4.5 19:48:06 10° NNW 19:53:36 50° NE 19:55:25 36° ESE
Cosmos 1805 3.6 19:50:35 10° SSW 19:54:26 66° WNW 19:58:19 10° N
Landsat 7 3.8 19:51:58 23° SSE 19:54:57 86° WSW 19:59:43 10° NNW
Cosmos 1908 Rocket 3.6 19:55:32 49° ESE 19:55:53 50° E 20:00:06 10° NNE
SL-19 R/B 4.5 19:50:45 10° NNE 19:56:49 70° ESE 20:03:22 10° S
JB-3 4.3 19:52:48 10° NNE 19:56:58 85° ESE 20:00:54 11° SSW
Cosmos 1844 Rocket 3.9 19:52:13 10° NNW 19:56:58 27° NE 19:58:31 24° ENE
Cosmos 841 Rocket 3.5 19:53:58 10° NNW 19:59:11 78° WSW 20:01:52 29° SSE
IRIDIUM 114 4.4 19:54:03 10° S 19:59:16 78° W 20:04:31 10° N
Cosmos 1766 3.1 19:58:45 54° SSE 19:59:29 71° E 20:03:25 10° NNE
NOSS 7 (H) 4.3 19:56:34 10° NW 19:59:41 76° NE 19:59:46 75° ENE
Resurs 01 Rocket 1.6 20:00:20 51° ESE 20:01:11 63° ENE 20:05:34 10° N
ATLAS 2AS CENTAUR R/B 4.2 19:54:28 10° W 20:01:22 36° NNW 20:07:57 10° NE
USA 281 3.8 19:59:20 31° E 20:01:44 41° NE 20:07:49 10° NNW
IGS 5A 4.3 19:58:53 14° S 20:02:16 48° W 20:06:19 10° NNW
Cosmos 1092 Rocket 4.2 19:59:44 30° SSE 20:02:35 50° E 20:08:37 10° NNE
Terra 3.5 20:04:55 19° NE 20:04:55 19° NE 20:07:49 10° NNE
USA 229 DEB 4.3 19:58:38 10° NW 20:05:51 62° SW 20:10:50 23° SSE
USA 229 4.3 19:58:44 10° NW 20:05:57 62° SW 20:10:54 24° SSE
Cosmos 2082 4.2 20:02:46 10° NW 20:08:23 57° WSW 20:11:51 23° S
ERS-1 Rocket 4.2 20:08:44 25° ENE 20:08:44 25° ENE 20:12:41 10° N
Cosmos 1741 Rocket 3.9 20:04:05 10° SSW 20:09:20 71° ESE 20:14:37 10° NNE
Meteor 2-21 4.5 20:05:08 10° SSW 20:11:11 79° WNW 20:17:16 10° N
Cosmos 1674 Rocket 4.4 20:07:44 10° NNW 20:11:57 48° W 20:14:55 18° SSW
Cosmos 2263 Rocket 2.2 20:06:33 10° NNW 20:12:16 85° WSW 20:14:22 41° SSE
OBJECT-B 3.5 20:15:56 10° WSW 20:17:16 13° W 20:18:38 10° WNW
SPOT 1/Viking Rocket 3.4 20:18:05 48° SSE 20:19:36 87° ENE 20:24:48 10° NNW
MetOp-A 3.7 20:20:28 53° SW 20:20:59 59° WSW 20:24:47 10° NNW
MOS 1 4.2 20:19:25 40° SSE 20:21:35 88° WSW 20:27:17 10° NNW
SPOT 3 Rocket 3.9 20:21:32 45° ENE 20:21:36 45° ENE 20:26:30 10° N
Okean-O 4.1 20:18:27 13° SSW 20:21:59 35° W 20:26:04 10° NNW
Cosmos 1242 Rocket 4.5 20:19:28 10° SW 20:22:39 29° WNW 20:25:50 10° N
Cosmos 1814 Rocket 4.0 20:24:29 10° NNW 20:29:50 82° WSW 20:30:47 60° S
Cosmos 1697 Rocket 3.5 20:24:56 10° SW 20:30:25 51° NW 20:35:55 10° NNE
Spot 2 4.3 20:32:09 56° WSW 20:32:25 58° WSW 20:36:32 10° NNW
Cosmos 1975 Rocket 3.3 20:28:26 10° N 20:32:19 61° NNE 20:32:19 61° NNE
Cosmos 1627 Rocket 4.3 20:32:34 49° SSE 20:34:14 73° E 20:40:20 10° NNE
Timation 2 Rocket 4.4 20:31:38 10° NW 20:38:04 58° WSW 20:40:24 37° S
USA 215 3.6 20:39:29 36° ENE 20:42:04 58° N 20:48:28 10° WNW
Cosmos 2285 Rocket 4.1 20:37:36 10° NNW 20:43:55 71° WSW 20:45:41 48° S
Meteor 1-24 Rocket 3.6 20:40:55 10° NNW 20:46:15 74° W 20:46:55 65° SSW
Cosmos 1025 Rocket 3.6 20:42:47 10° N 20:46:06 53° NNW 20:46:06 53° NNW
SL-4 R/B 2.6 20:43:58 10° W 20:47:50 63° W 20:47:50 63° W
Meteor 1-22 Rocket 4.0 20:49:50 82° SSW 20:50:05 89° W 20:55:37 10° NNE
CARTOSAT-1 4.1 20:53:35 55° NNW 20:53:35 55° NNW 20:57:03 10° NNW
Meteor 2-5 Rocket 4.1 20:47:44 10° NNW 20:53:13 59° W 20:54:28 48° SW
Meteor 1-15 Rocket 4.5 20:50:13 25° SSW 20:53:29 65° WNW 20:59:03 10° N
MetOp-B 4.1 20:55:19 72° SW 20:55:38 75° WSW 21:01:02 10° NNW
Cosmos 489 Rocket 4.5 20:53:24 10° SSW 20:59:47 82° WNW 21:06:10 10° NNE
ISS -0.9 20:57:11 10° W 20:58:03 17° W 20:58:03 17° W
Cosmos 2369 4.4 20:55:50 10° SW 21:01:25 53° NW 21:07:04 10° NNE
USA 245 4.4 21:01:50 74° SSE 21:02:30 90° ENE 21:08:44 10° NNW
Cosmos 1553 Rocket 3.9 21:01:17 10° N 21:07:36 89° W 21:07:56 82° S
Cosmos 1980 Rocket 2.9 21:02:24 10° SW 21:07:54 51° NW 21:13:24 10° NNE
Cosmos 2278 3.7 21:11:11 77° NW 21:11:11 77° NW 21:16:45 10° NNE
Cosmos 2026 Rocket 4.2 21:10:18 46° SW 21:12:03 65° WNW 21:18:06 10° N
SL-16 R/B 4.0 21:21:54 20° NE 21:21:54 20° NE 21:23:34 10° NE
SPOT 5 3.7 21:28:31 50° NW 21:28:31 50° NW 21:32:15 10° NNW
Ariane Rocket 4.1 21:28:50 39° W 21:28:50 39° W 21:33:26 10° NNW
Cosmos 2278 Rocket 3.9 21:25:26 10° NNW 21:29:42 22° NE 21:29:42 22° NE
H-2A R/B 4.2 21:29:04 10° N 21:30:32 21° N 21:30:32 21° N
SeaSat 1 3.9 21:38:40 33° N 21:38:40 33° N 21:41:44 10° NNW
Resurs 01 Rocket 4.0 21:37:53 17° W 21:38:06 18° W 21:41:06 10° NW
ADEOS Rocket 4.2 21:41:35 27° NNE 21:41:35 27° NNE 21:44:47 10° N
Cosmos 1844 Rocket 3.3 21:35:48 10° NNW 21:40:10 54° NW 21:40:10 54° NW
Terra 3.3 21:43:48 34° NNW 21:43:48 34° NNW 21:46:33 10° NNW
Cosmos 1844 4.4 21:38:11 10° NNW 21:42:15 50° NNW 21:42:15 50° NNW
USA 281 3.5 21:46:13 56° WSW 21:46:13 56° WSW 21:52:33 10° NNW
ERS-1 Rocket 4.2 21:48:43 39° NW 21:48:43 39° NW 21:52:04 10° NNW
ATLAS 2AS CENTAUR R/B 4.2 21:47:45 10° NW 21:54:17 32° N 21:57:17 24° NE
Cosmos 2263 Rocket 4.4 21:51:56 10° WNW 21:55:21 16° W 21:56:04 16° WSW
NOSS 3-4 (A) 4.2 21:59:15 10° NW 22:05:21 54° NNE 22:05:21 54° NNE
NOSS 3-4 (C) 4.2 21:59:22 10° NW 22:05:27 54° NNE 22:05:27 54° NNE
Cosmos 1943 Rocket 4.3 22:04:26 10° N 22:08:01 17° NNE 22:08:01 17° NNE
Cosmos 2360 Rocket 4.3 22:21:00 18° NNE 22:21:00 18° NNE 22:22:24 10° NNE
USA 215 3.8 22:26:50 51° WNW 22:26:50 51° WNW 22:31:32 10° WNW
Cosmos 2322 Rocket 3.9 22:41:48 27° N 22:41:48 27° N 22:44:32 10° NNE
SL-16 R/B 4.0 23:03:44 28° NNW 23:03:44 28° NNW 23:07:30 10° NNE
Cosmos 2278 Rocket 4.1 23:09:07 10° NNW 23:11:31 26° NNW 23:11:31 26° NNW
Cosmos 2333 Rocket 4.2 23:20:53 24° NNE 23:20:53 24° NNE 23:23:09 10° NNE
Cosmos 2369 Rocket 4.2 23:29:02 10° NNW 23:32:41 23° NNE 23:32:41 23° NNE
Cosmos 2344 4.4 23:46:08 39° NE 23:46:08 39° NE 23:50:46 10° NE
Cosmos 2219 Rocket 4.2 23:47:35 25° NNE 23:47:35 25° NNE 23:49:57 10° NNE
ATLAS 2AS CENTAUR R/B 3.7 23:39:33 10° NW 23:44:40 43° NNW 23:44:40 43° NNW
Cosmos 1943 Rocket 4.3 23:47:33 10° NNW 23:49:31 22° NNW 23:49:31 22° NNW
Cosmos 2237 Rocket 4.4 23:57:59 19° NE 23:57:59 19° NE 23:59:34 10° NE
